NJE757A EDXW-BIAR

Flight info

Callsign NJE757A
Flight time 2h 26m
Altitude 43000
Route OLDIP1B OLDIP DCT ATTUS P992 BAVTA DCT MITSI DCT OBUPA DCT GUNPA/M084F430 DCT 64N009W DCT RETUR DCT MAMEP
Aircraft C700/M-SBDGHM1RWXY/LB2

Departure

Time 2026-05-06 18:11
Airport Westerland Sylt Airport (EDXW)

Arrival

Time 2026-05-06 20:38
Airport Akureyri International Airport (BIAR)
Time Latitude Longitude Altitude Speed Heading
2026-05-06 17:58 54.91165 8.32581 51 ft 0 kts 226°
2026-05-06 18:07 54.91165 8.32580 52 ft 0 kts 229°
2026-05-06 18:08 54.91159 8.32582 49 ft 2 kts 150°
2026-05-06 18:08 54.91149 8.32677 51 ft 16 kts 129°
2026-05-06 18:08 54.91064 8.32850 52 ft 21 kts 110°
2026-05-06 18:08 54.90960 8.33085 53 ft 27 kts 142°
2026-05-06 18:09 54.90782 8.33210 52 ft 29 kts 181°
2026-05-06 18:09 54.90581 8.33245 50 ft 30 kts 171°
2026-05-06 18:09 54.90403 8.33365 52 ft 28 kts 139°
2026-05-06 18:09 54.90281 8.33629 49 ft 29 kts 114°
2026-05-06 18:10 54.90241 8.33971 49 ft 29 kts 98°
2026-05-06 18:10 54.90255 8.34322 52 ft 30 kts 79°
2026-05-06 18:10 54.90291 8.34679 52 ft 30 kts 81°
2026-05-06 18:10 54.90330 8.35039 49 ft 30 kts 71°
2026-05-06 18:11 54.90426 8.35161 54 ft 13 kts 324°
2026-05-06 18:11 54.90687 8.34839 51 ft 88 kts 322°
2026-05-06 18:11 54.91353 8.34010 394 ft 130 kts 323°
2026-05-06 18:11 54.92091 8.32986 1196 ft 157 kts 320°
2026-05-06 18:12 54.93092 8.31749 1796 ft 195 kts 330°
2026-05-06 18:12 54.94337 8.30349 2520 ft 232 kts 327°
2026-05-06 18:12 54.95734 8.28556 3265 ft 267 kts 323°
2026-05-06 18:12 54.96966 8.25939 3962 ft 298 kts 300°
2026-05-06 18:13 54.97452 8.22623 3941 ft 271 kts 271°
2026-05-06 18:13 54.97164 8.19549 3945 ft 249 kts 248°
2026-05-06 18:13 54.96302 8.17030 3969 ft 236 kts 224°
2026-05-06 18:13 54.95083 8.15336 4486 ft 224 kts 205°
2026-05-06 18:14 54.93582 8.14417 5055 ft 234 kts 186°
2026-05-06 18:14 54.91960 8.14462 5626 ft 234 kts 166°
2026-05-06 18:14 54.90473 8.15435 5950 ft 239 kts 146°
2026-05-06 18:14 54.89147 8.17242 5945 ft 243 kts 137°
2026-05-06 18:15 54.87855 8.19089 5933 ft 238 kts 136°
2026-05-06 18:15 54.86579 8.20892 5927 ft 235 kts 135°
2026-05-06 18:15 54.85322 8.22677 5933 ft 232 kts 136°
2026-05-06 18:15 54.84071 8.24456 5946 ft 234 kts 137°
2026-05-06 18:16 54.82803 8.26244 5952 ft 235 kts 136°
2026-05-06 18:16 54.81444 8.27853 5923 ft 238 kts 144°
2026-05-06 18:16 54.80035 8.29361 5929 ft 238 kts 142°
2026-05-06 18:16 54.78639 8.30890 5925 ft 238 kts 142°
2026-05-06 18:17 54.77280 8.32503 5923 ft 233 kts 130°
2026-05-06 18:17 54.76631 8.34941 5951 ft 226 kts 90°
2026-05-06 18:17 54.77102 8.37564 5976 ft 245 kts 56°
2026-05-06 18:17 54.78150 8.39982 6306 ft 257 kts 52°
2026-05-06 18:18 54.79121 8.42565 6749 ft 259 kts 59°
2026-05-06 18:18 54.80193 8.45100 7410 ft 265 kts 36°
2026-05-06 18:18 54.81904 8.46033 8482 ft 268 kts 357°
2026-05-06 18:18 54.83690 8.45094 9739 ft 272 kts 329°
2026-05-06 18:19 54.85272 8.43206 10818 ft 285 kts 321°
2026-05-06 18:19 54.86894 8.41028 11154 ft 304 kts 321°
2026-05-06 18:19 54.88747 8.38836 11411 ft 338 kts 326°
2026-05-06 18:19 54.90839 8.36641 11905 ft 363 kts 327°
2026-05-06 18:20 54.92996 8.34325 13056 ft 364 kts 325°
2026-05-06 18:20 54.95142 8.31888 14128 ft 371 kts 324°
2026-05-06 18:20 54.97316 8.29407 15543 ft 377 kts 324°
2026-05-06 18:20 54.99549 8.26921 16854 ft 386 kts 324°
2026-05-06 18:21 55.01841 8.24383 18059 ft 394 kts 324°
2026-05-06 18:21 55.04138 8.21812 19028 ft 401 kts 323°
2026-05-06 18:21 55.06488 8.19166 19914 ft 406 kts 323°
2026-05-06 18:21 55.08891 8.16458 20695 ft 413 kts 323°
2026-05-06 18:22 55.11318 8.13736 21510 ft 418 kts 322°
2026-05-06 18:22 55.13781 8.10964 22295 ft 424 kts 322°
2026-05-06 18:22 55.16271 8.08150 23080 ft 429 kts 322°
2026-05-06 18:22 55.18794 8.05296 23799 ft 434 kts 322°
2026-05-06 18:23 55.21341 8.02415 24461 ft 439 kts 322°
2026-05-06 18:23 55.23918 7.99495 25106 ft 443 kts 322°
2026-05-06 18:23 55.26518 7.96541 25756 ft 447 kts 321°
2026-05-06 18:23 55.29144 7.93556 26386 ft 452 kts 321°
2026-05-06 18:24 55.31788 7.90542 26990 ft 456 kts 321°
2026-05-06 18:24 55.34425 7.87534 27582 ft 460 kts 321°
2026-05-06 18:24 55.37121 7.84452 28164 ft 464 kts 321°
2026-05-06 18:24 55.39841 7.81339 28737 ft 469 kts 321°
2026-05-06 18:25 55.42585 7.78192 29327 ft 473 kts 321°
2026-05-06 18:25 55.45355 7.75008 29841 ft 478 kts 321°
2026-05-06 18:25 55.48152 7.71792 30337 ft 482 kts 321°
2026-05-06 18:25 55.50965 7.68553 30821 ft 485 kts 321°
2026-05-06 18:26 55.53796 7.65283 31273 ft 488 kts 321°
2026-05-06 18:26 55.56638 7.61995 31733 ft 490 kts 321°
2026-05-06 18:26 55.59496 7.58684 32133 ft 490 kts 321°
2026-05-06 18:26 55.62288 7.55470 33477 ft 471 kts 321°
2026-05-06 18:27 55.64982 7.52319 34076 ft 470 kts 320°
2026-05-06 18:27 55.67707 7.49121 34502 ft 470 kts 321°
2026-05-06 18:27 55.70445 7.45949 34932 ft 471 kts 321°
2026-05-06 18:27 55.73290 7.43020 35294 ft 471 kts 322°
2026-05-06 18:28 55.75902 7.39589 35751 ft 467 kts 316°
2026-05-06 18:28 55.78516 7.36109 36096 ft 471 kts 320°
2026-05-06 18:28 55.81264 7.32927 36551 ft 472 kts 322°
2026-05-06 18:28 55.84074 7.29885 36962 ft 473 kts 323°
2026-05-06 18:29 55.86880 7.26817 37380 ft 472 kts 322°
2026-05-06 18:29 55.89598 7.23539 37779 ft 471 kts 320°
2026-05-06 18:29 55.92288 7.20199 38147 ft 472 kts 320°
2026-05-06 18:29 55.95035 7.16961 38529 ft 474 kts 322°
2026-05-06 18:30 55.97801 7.13778 38853 ft 473 kts 322°
2026-05-06 18:30 56.00506 7.10571 39131 ft 473 kts 321°
2026-05-06 18:30 56.03232 7.07268 39403 ft 473 kts 321°
2026-05-06 18:30 56.05970 7.03983 39681 ft 474 kts 321°
2026-05-06 18:31 56.08700 7.00699 39947 ft 474 kts 321°
2026-05-06 18:31 56.11454 6.97441 40244 ft 474 kts 321°
2026-05-06 18:31 56.14212 6.94178 40525 ft 474 kts 321°
2026-05-06 18:31 56.16948 6.90881 40782 ft 474 kts 321°
2026-05-06 18:32 56.19676 6.87572 41032 ft 474 kts 321°
2026-05-06 18:32 56.22415 6.84275 41312 ft 474 kts 321°
2026-05-06 18:32 56.25157 6.80981 41588 ft 473 kts 321°
2026-05-06 18:32 56.27855 6.77717 41823 ft 474 kts 321°
2026-05-06 18:33 56.30587 6.74398 42054 ft 474 kts 321°
2026-05-06 18:33 56.33319 6.71082 42277 ft 474 kts 321°
2026-05-06 18:33 56.36052 6.67764 42505 ft 474 kts 321°
2026-05-06 18:33 56.38789 6.64432 42725 ft 474 kts 321°
2026-05-06 18:34 56.41520 6.61098 42955 ft 474 kts 321°
2026-05-06 18:34 56.44261 6.57744 43011 ft 478 kts 321°
2026-05-06 18:34 56.49804 6.50950 43016 ft 484 kts 321°
2026-05-06 18:35 56.55360 6.44119 43020 ft 481 kts 321°
2026-05-06 18:35 56.60875 6.37310 43033 ft 478 kts 321°
2026-05-06 18:36 56.66314 6.30571 43018 ft 475 kts 321°
2026-05-06 18:36 56.71764 6.23794 43025 ft 475 kts 321°
2026-05-06 18:37 56.77247 6.17008 43026 ft 477 kts 321°
2026-05-06 18:37 56.82711 6.10088 43034 ft 479 kts 320°
2026-05-06 18:38 56.88220 6.03189 43029 ft 481 kts 321°
2026-05-06 18:38 56.93687 5.96286 43023 ft 480 kts 321°
2026-05-06 18:39 56.99182 5.89328 43031 ft 479 kts 321°
2026-05-06 18:40 57.07386 5.78893 43032 ft 477 kts 321°
2026-05-06 18:40 57.12830 5.71942 43033 ft 476 kts 320°
2026-05-06 18:41 57.18221 5.65026 43034 ft 475 kts 320°
2026-05-06 18:41 57.23631 5.58064 43033 ft 474 kts 320°
2026-05-06 18:42 57.29045 5.51070 43041 ft 476 kts 320°
2026-05-06 18:42 57.34482 5.44021 43035 ft 478 kts 320°
2026-05-06 18:43 57.39932 5.36928 43035 ft 480 kts 320°
2026-05-06 18:43 57.45360 5.29839 43034 ft 480 kts 320°
2026-05-06 18:44 57.50809 5.22697 43043 ft 479 kts 320°
2026-05-06 18:44 57.56235 5.15557 43051 ft 477 kts 320°
2026-05-06 18:45 57.61633 5.08428 43044 ft 475 kts 320°
2026-05-06 18:45 57.67019 5.01287 43050 ft 475 kts 320°
2026-05-06 18:46 57.72376 4.94158 43045 ft 477 kts 320°
2026-05-06 18:46 57.77785 4.86935 43045 ft 478 kts 320°
2026-05-06 18:47 57.83207 4.79666 43058 ft 480 kts 320°
2026-05-06 18:47 57.88640 4.72356 43055 ft 480 kts 320°
2026-05-06 18:48 57.94051 4.65048 43049 ft 478 kts 320°
2026-05-06 18:48 57.99400 4.57794 43059 ft 476 kts 320°
2026-05-06 18:49 58.04758 4.50503 43058 ft 474 kts 320°
2026-05-06 18:49 58.10104 4.43198 43053 ft 475 kts 319°
2026-05-06 18:50 58.15467 4.35843 43067 ft 477 kts 319°
2026-05-06 18:50 58.20811 4.28487 43063 ft 478 kts 319°
2026-05-06 18:51 58.26178 4.21072 43055 ft 476 kts 319°
2026-05-06 18:51 58.31519 4.13664 43059 ft 474 kts 319°
2026-05-06 18:52 58.36833 4.06264 43058 ft 472 kts 319°
2026-05-06 18:52 58.42124 3.98868 43080 ft 472 kts 319°
2026-05-06 18:53 58.47427 3.91428 43058 ft 474 kts 319°
2026-05-06 18:53 58.52743 3.83941 43057 ft 475 kts 319°
2026-05-06 18:54 58.58032 3.76462 43057 ft 477 kts 319°
2026-05-06 18:54 58.63364 3.68894 43064 ft 476 kts 319°
2026-05-06 18:55 58.68679 3.61322 43062 ft 474 kts 319°
2026-05-06 18:55 58.73962 3.53764 43060 ft 472 kts 319°
2026-05-06 18:56 58.79226 3.46207 43061 ft 471 kts 319°
2026-05-06 18:56 58.84468 3.38650 43060 ft 471 kts 319°
2026-05-06 18:57 58.89719 3.31050 43062 ft 473 kts 319°
2026-05-06 18:57 58.94991 3.23391 43061 ft 474 kts 319°
2026-05-06 18:58 59.00272 3.15688 43075 ft 476 kts 319°
2026-05-06 18:58 59.05518 3.08008 43056 ft 474 kts 319°
2026-05-06 18:59 59.10760 3.00303 43053 ft 471 kts 318°
2026-05-06 18:59 59.15975 2.92607 43052 ft 469 kts 318°
2026-05-06 19:00 59.21177 2.84899 43054 ft 470 kts 318°
2026-05-06 19:00 59.26395 2.77137 43040 ft 473 kts 318°
2026-05-06 19:01 59.31604 2.69358 43047 ft 476 kts 318°
2026-05-06 19:01 59.36866 2.61469 43038 ft 477 kts 318°
2026-05-06 19:02 59.42117 2.53568 43039 ft 474 kts 318°
2026-05-06 19:02 59.47330 2.45689 43034 ft 471 kts 318°
2026-05-06 19:03 59.52477 2.37880 43032 ft 469 kts 317°
2026-05-06 19:03 59.57646 2.30005 43039 ft 470 kts 317°
2026-05-06 19:04 59.62831 2.22074 43037 ft 473 kts 317°
2026-05-06 19:04 59.68043 2.14070 43032 ft 475 kts 317°
2026-05-06 19:05 59.73233 2.06069 43039 ft 476 kts 317°
2026-05-06 19:05 59.78446 1.98000 43040 ft 474 kts 317°
2026-05-06 19:06 59.83631 1.89941 43037 ft 472 kts 317°
2026-05-06 19:06 59.88787 1.81893 43042 ft 471 kts 317°
2026-05-06 19:07 59.93943 1.73813 43024 ft 472 kts 317°
2026-05-06 19:07 59.99075 1.65738 43031 ft 474 kts 317°
2026-05-06 19:08 60.04250 1.57561 43034 ft 475 kts 317°
2026-05-06 19:08 60.09438 1.49331 43028 ft 476 kts 317°
2026-05-06 19:09 60.14632 1.41058 43024 ft 477 kts 317°
2026-05-06 19:09 60.19784 1.32817 43027 ft 477 kts 317°
2026-05-06 19:10 60.24957 1.24510 43031 ft 475 kts 317°
2026-05-06 19:10 60.30100 1.16215 43022 ft 472 kts 317°
2026-05-06 19:11 60.35210 1.07940 43020 ft 470 kts 317°
2026-05-06 19:11 60.40309 0.99645 43019 ft 471 kts 317°
2026-05-06 19:12 60.45424 0.91291 43021 ft 473 kts 317°
2026-05-06 19:12 60.50525 0.82926 43024 ft 476 kts 317°
2026-05-06 19:13 60.55675 0.74443 43017 ft 477 kts 317°
2026-05-06 19:13 60.60818 0.65941 43019 ft 475 kts 317°
2026-05-06 19:14 60.65933 0.57446 43011 ft 473 kts 317°
2026-05-06 19:14 60.70980 0.49029 43010 ft 471 kts 317°
2026-05-06 19:15 60.76036 0.40560 43028 ft 471 kts 317°
2026-05-06 19:15 60.81120 0.32008 43015 ft 475 kts 317°
2026-05-06 19:16 60.86239 0.23361 43015 ft 478 kts 317°
2026-05-06 19:16 60.91365 0.14674 43013 ft 476 kts 316°
2026-05-06 19:17 60.96454 0.05993 43007 ft 474 kts 316°
2026-05-06 19:17 61.01229 -0.03122 43036 ft 469 kts 307°
2026-05-06 19:18 61.05388 -0.13490 43016 ft 470 kts 307°
2026-05-06 19:18 61.09565 -0.23905 43007 ft 472 kts 306°
2026-05-06 19:19 61.13745 -0.34420 43005 ft 474 kts 306°
2026-05-06 19:19 61.17910 -0.44916 43006 ft 476 kts 306°
2026-05-06 19:20 61.22099 -0.55537 43002 ft 475 kts 306°
2026-05-06 19:20 61.26266 -0.66140 43000 ft 473 kts 306°
2026-05-06 19:21 61.30409 -0.76739 43007 ft 471 kts 306°
2026-05-06 19:21 61.34502 -0.87256 43011 ft 470 kts 306°
2026-05-06 19:22 61.38618 -0.97882 43003 ft 472 kts 306°
2026-05-06 19:22 61.42737 -1.08566 43003 ft 473 kts 306°
2026-05-06 19:23 61.46860 -1.19309 43002 ft 474 kts 306°
2026-05-06 19:23 61.50980 -1.30095 43001 ft 475 kts 306°
2026-05-06 19:24 61.55073 -1.40862 43001 ft 476 kts 306°
2026-05-06 19:24 61.59185 -1.51728 43002 ft 475 kts 306°
2026-05-06 19:25 61.63274 -1.62588 43003 ft 473 kts 306°
2026-05-06 19:25 61.67339 -1.73432 43006 ft 471 kts 305°
2026-05-06 19:26 61.71374 -1.84247 43005 ft 469 kts 305°
2026-05-06 19:26 61.75373 -1.95022 43003 ft 470 kts 305°
2026-05-06 19:27 61.79411 -2.05948 43004 ft 472 kts 305°
2026-05-06 19:27 61.83449 -2.16928 43006 ft 474 kts 305°
2026-05-06 19:28 61.87497 -2.27989 43008 ft 475 kts 305°
2026-05-06 19:28 61.91499 -2.38977 43016 ft 473 kts 305°
2026-05-06 19:29 61.95510 -2.50041 43006 ft 472 kts 305°
2026-05-06 19:29 61.99501 -2.61105 43011 ft 471 kts 304°
2026-05-06 19:30 62.03472 -2.72167 43014 ft 469 kts 304°
2026-05-06 19:30 62.07424 -2.83230 43011 ft 470 kts 304°
2026-05-06 19:31 62.11357 -2.94291 43014 ft 471 kts 304°
2026-05-06 19:31 62.17302 -3.11116 43013 ft 473 kts 304°
2026-05-06 19:32 62.21267 -3.22407 43020 ft 475 kts 304°
2026-05-06 19:32 62.25239 -3.33773 43012 ft 476 kts 304°
2026-05-06 19:33 62.29165 -3.45062 43017 ft 474 kts 304°
2026-05-06 19:33 62.33093 -3.56413 43017 ft 472 kts 304°
2026-05-06 19:34 62.36996 -3.67748 43023 ft 470 kts 304°
2026-05-06 19:34 62.40883 -3.79095 43018 ft 471 kts 304°
2026-05-06 19:35 62.44744 -3.90422 43018 ft 472 kts 304°
2026-05-06 19:35 62.48637 -4.01898 43029 ft 474 kts 303°
2026-05-06 19:36 62.52538 -4.13458 43021 ft 476 kts 303°
2026-05-06 19:36 62.56440 -4.25078 43021 ft 477 kts 303°
2026-05-06 19:37 62.60305 -4.36647 43022 ft 476 kts 303°
2026-05-06 19:37 62.63546 -4.46391 43026 ft 474 kts 303°
2026-05-06 19:38 62.67367 -4.57936 43027 ft 473 kts 303°
2026-05-06 19:38 62.71197 -4.69567 43024 ft 472 kts 303°
2026-05-06 19:39 62.75627 -4.83094 43037 ft 472 kts 303°
2026-05-06 19:39 62.79440 -4.94804 43029 ft 474 kts 303°
2026-05-06 19:40 62.82613 -5.04593 43026 ft 476 kts 303°
2026-05-06 19:40 62.86440 -5.16456 43029 ft 478 kts 303°
2026-05-06 19:41 62.90263 -5.28365 43029 ft 476 kts 303°
2026-05-06 19:41 62.94655 -5.42129 43036 ft 471 kts 303°
2026-05-06 19:42 62.97769 -5.51937 43037 ft 472 kts 303°
2026-05-06 19:42 63.01532 -5.63848 43036 ft 475 kts 302°
2026-05-06 19:43 63.05304 -5.75848 43046 ft 478 kts 302°
2026-05-06 19:43 63.09085 -5.87945 43042 ft 478 kts 302°
2026-05-06 19:44 63.12841 -6.00020 43036 ft 476 kts 302°
2026-05-06 19:44 63.16544 -6.11991 43042 ft 473 kts 302°
2026-05-06 19:45 63.20233 -6.23980 43037 ft 470 kts 302°
2026-05-06 19:45 63.23903 -6.35971 43043 ft 472 kts 302°
2026-05-06 19:46 63.27568 -6.48010 43046 ft 474 kts 302°
2026-05-06 19:46 63.31242 -6.60137 43047 ft 471 kts 302°
2026-05-06 19:47 63.34882 -6.72221 43053 ft 471 kts 302°
2026-05-06 19:47 63.38517 -6.84352 43054 ft 471 kts 302°
2026-05-06 19:48 63.42152 -6.96552 43056 ft 474 kts 302°
2026-05-06 19:48 63.45793 -7.08837 43057 ft 480 kts 301°
2026-05-06 19:49 63.49455 -7.21255 43056 ft 474 kts 301°
2026-05-06 19:49 63.53045 -7.33498 43059 ft 468 kts 301°
2026-05-06 19:50 63.56602 -7.45701 43073 ft 474 kts 301°
2026-05-06 19:50 63.60229 -7.58208 43069 ft 480 kts 301°
2026-05-06 19:51 63.63858 -7.70789 43064 ft 476 kts 301°
2026-05-06 19:51 63.67397 -7.83124 43070 ft 463 kts 301°
2026-05-06 19:52 63.70868 -7.95293 43075 ft 462 kts 301°
2026-05-06 19:52 63.74329 -8.07498 43071 ft 467 kts 301°
2026-05-06 19:53 63.77840 -8.19941 43073 ft 471 kts 301°
2026-05-06 19:53 63.81342 -8.32418 43084 ft 468 kts 300°
2026-05-06 19:54 63.84820 -8.44881 43075 ft 467 kts 300°
2026-05-06 19:54 63.88246 -8.57228 43085 ft 466 kts 300°
2026-05-06 19:55 63.91691 -8.69710 43085 ft 467 kts 300°
2026-05-06 19:55 63.95137 -8.82268 43086 ft 469 kts 300°
2026-05-06 19:56 63.98582 -8.94894 43087 ft 470 kts 300°
2026-05-06 19:56 64.01712 -9.07990 43096 ft 471 kts 295°
2026-05-06 19:57 64.04618 -9.21280 43090 ft 473 kts 295°
2026-05-06 19:57 64.07541 -9.34812 43105 ft 477 kts 295°
2026-05-06 19:58 64.10464 -9.48404 43102 ft 476 kts 295°
2026-05-06 19:58 64.13368 -9.61987 43096 ft 476 kts 295°
2026-05-06 19:59 64.16253 -9.75593 43104 ft 481 kts 294°
2026-05-06 19:59 64.19164 -9.89392 43104 ft 478 kts 294°
2026-05-06 20:00 64.22020 -10.03022 43106 ft 469 kts 294°
2026-05-06 20:00 64.24837 -10.16556 43110 ft 473 kts 294°
2026-05-06 20:01 64.27664 -10.30237 43121 ft 473 kts 294°
2026-05-06 20:01 64.30460 -10.43834 43114 ft 474 kts 294°
2026-05-06 20:02 64.33264 -10.57585 43118 ft 473 kts 294°
2026-05-06 20:02 64.36065 -10.71390 43130 ft 475 kts 294°
2026-05-06 20:03 64.38845 -10.85205 43123 ft 474 kts 294°
2026-05-06 20:03 64.41598 -10.98963 43130 ft 475 kts 293°
2026-05-06 20:04 64.44370 -11.12920 43132 ft 479 kts 293°
2026-05-06 20:04 64.47135 -11.26931 43121 ft 475 kts 293°
2026-05-06 20:05 64.49859 -11.40816 43136 ft 473 kts 293°
2026-05-06 20:05 64.52572 -11.54767 43143 ft 473 kts 293°
2026-05-06 20:06 64.55246 -11.68587 43141 ft 471 kts 293°
2026-05-06 20:06 64.57926 -11.82550 43139 ft 475 kts 293°
2026-05-06 20:07 64.60618 -11.96668 43144 ft 478 kts 293°
2026-05-06 20:07 64.63299 -12.10817 43156 ft 478 kts 292°
2026-05-06 20:08 64.65952 -12.24934 43155 ft 480 kts 293°
2026-05-06 20:08 64.68622 -12.39231 43160 ft 479 kts 292°
2026-05-06 20:09 64.71259 -12.53455 43161 ft 476 kts 292°
2026-05-06 20:09 64.73870 -12.67639 43170 ft 474 kts 292°
2026-05-06 20:10 64.76445 -12.81730 43169 ft 473 kts 292°
2026-05-06 20:10 64.79031 -12.95973 43170 ft 478 kts 292°
2026-05-06 20:11 64.81626 -13.10382 43174 ft 481 kts 292°
2026-05-06 20:11 64.84223 -13.24882 43176 ft 483 kts 292°
2026-05-06 20:12 64.86809 -13.39459 43174 ft 482 kts 292°
2026-05-06 20:12 64.89345 -13.53845 43181 ft 477 kts 292°
2026-05-06 20:13 64.91866 -13.68260 43194 ft 475 kts 292°
2026-05-06 20:13 64.94375 -13.82659 43186 ft 475 kts 292°
2026-05-06 20:14 64.96868 -13.97117 43201 ft 478 kts 292°
2026-05-06 20:14 64.99350 -14.11643 43200 ft 481 kts 292°
2026-05-06 20:15 65.01860 -14.26424 42595 ft 491 kts 291°
2026-05-06 20:15 65.03123 -14.33918 41955 ft 488 kts 291°
2026-05-06 20:15 65.04367 -14.41318 41306 ft 479 kts 292°
2026-05-06 20:16 65.05584 -14.48573 40757 ft 468 kts 292°
2026-05-06 20:16 65.06765 -14.55659 40229 ft 460 kts 292°
2026-05-06 20:16 65.07933 -14.62690 39643 ft 456 kts 292°
2026-05-06 20:16 65.09092 -14.69689 39008 ft 456 kts 292°
2026-05-06 20:17 65.10233 -14.76599 38355 ft 456 kts 291°
2026-05-06 20:17 65.11387 -14.83625 37774 ft 459 kts 291°
2026-05-06 20:17 65.12550 -14.90738 37135 ft 466 kts 291°
2026-05-06 20:17 65.13729 -14.97974 36492 ft 472 kts 291°
2026-05-06 20:18 65.14914 -15.05269 35808 ft 472 kts 291°
2026-05-06 20:18 65.16087 -15.12515 35234 ft 468 kts 291°
2026-05-06 20:18 65.17246 -15.19705 34626 ft 465 kts 292°
2026-05-06 20:18 65.18400 -15.26888 33979 ft 463 kts 292°
2026-05-06 20:19 65.19540 -15.34018 33383 ft 459 kts 292°
2026-05-06 20:19 65.20660 -15.41038 32791 ft 461 kts 292°
2026-05-06 20:19 65.21801 -15.48213 32163 ft 465 kts 292°
2026-05-06 20:19 65.22946 -15.55447 31525 ft 467 kts 292°
2026-05-06 20:20 65.24084 -15.62670 30906 ft 466 kts 292°
2026-05-06 20:20 65.25215 -15.69885 30291 ft 463 kts 293°
2026-05-06 20:20 65.26340 -15.77072 29657 ft 459 kts 293°
2026-05-06 20:20 65.27450 -15.84197 29081 ft 456 kts 293°
2026-05-06 20:21 65.28544 -15.91253 28508 ft 452 kts 292°
2026-05-06 20:21 65.29617 -15.98197 27939 ft 449 kts 292°
2026-05-06 20:21 65.30692 -16.05172 27383 ft 446 kts 292°
2026-05-06 20:21 65.31757 -16.12115 26817 ft 444 kts 292°
2026-05-06 20:22 65.32812 -16.19019 26255 ft 440 kts 292°
2026-05-06 20:22 65.33854 -16.25865 25704 ft 435 kts 292°
2026-05-06 20:22 65.34879 -16.32619 25161 ft 430 kts 292°
2026-05-06 20:22 65.35893 -16.39333 24619 ft 426 kts 292°
2026-05-06 20:23 65.36897 -16.46000 24064 ft 423 kts 292°
2026-05-06 20:23 65.37885 -16.52582 23494 ft 418 kts 292°
2026-05-06 20:23 65.38844 -16.59004 22993 ft 412 kts 292°
2026-05-06 20:23 65.39806 -16.65466 22476 ft 411 kts 292°
2026-05-06 20:24 65.40766 -16.71931 21935 ft 411 kts 292°
2026-05-06 20:24 65.41719 -16.78373 21410 ft 408 kts 292°
2026-05-06 20:24 65.42661 -16.84769 20895 ft 404 kts 292°
2026-05-06 20:24 65.43592 -16.91114 20388 ft 401 kts 292°
2026-05-06 20:25 65.44515 -16.97427 19883 ft 399 kts 292°
2026-05-06 20:25 65.45432 -17.03710 19379 ft 398 kts 292°
2026-05-06 20:25 65.46342 -17.09979 18871 ft 397 kts 291°
2026-05-06 20:25 65.47237 -17.16157 18340 ft 395 kts 291°
2026-05-06 20:26 65.48133 -17.22373 17828 ft 391 kts 291°
2026-05-06 20:26 65.49017 -17.28526 17343 ft 387 kts 291°
2026-05-06 20:26 65.49832 -17.34678 16855 ft 386 kts 286°
2026-05-06 20:26 65.50217 -17.41083 16349 ft 388 kts 276°
2026-05-06 20:27 65.50126 -17.47598 15839 ft 391 kts 265°
2026-05-06 20:27 65.49552 -17.53996 15326 ft 391 kts 255°
2026-05-06 20:27 65.48513 -17.60033 14807 ft 390 kts 244°
2026-05-06 20:27 65.47045 -17.65517 14296 ft 390 kts 233°
2026-05-06 20:28 65.45226 -17.70206 13761 ft 389 kts 223°
2026-05-06 20:28 65.43079 -17.74072 13247 ft 385 kts 212°
2026-05-06 20:28 65.40737 -17.76951 12748 ft 371 kts 204°
2026-05-06 20:28 65.38451 -17.79435 12264 ft 350 kts 204°
2026-05-06 20:29 65.36297 -17.81812 11810 ft 332 kts 204°
2026-05-06 20:29 65.34230 -17.84087 11385 ft 321 kts 204°
2026-05-06 20:29 65.32206 -17.86297 10966 ft 319 kts 204°
2026-05-06 20:29 65.30238 -17.88709 10521 ft 318 kts 214°
2026-05-06 20:30 65.28611 -17.92139 10097 ft 305 kts 229°
2026-05-06 20:30 65.26733 -18.00555 9333 ft 281 kts 257°
2026-05-06 20:30 65.26457 -18.05119 8983 ft 277 kts 270°
2026-05-06 20:31 65.26615 -18.09738 8608 ft 283 kts 283°
2026-05-06 20:31 65.27232 -18.14335 8208 ft 301 kts 296°
2026-05-06 20:31 65.28339 -18.18630 7803 ft 305 kts 310°
2026-05-06 20:31 65.29840 -18.22130 7399 ft 298 kts 324°
2026-05-06 20:32 65.31588 -18.24590 7012 ft 288 kts 338°
2026-05-06 20:32 65.33476 -18.25987 6627 ft 282 kts 351°
2026-05-06 20:32 65.35417 -18.26314 6245 ft 279 kts
2026-05-06 20:32 65.37317 -18.25608 5659 ft 282 kts 15°
2026-05-06 20:33 65.39139 -18.24106 5255 ft 272 kts 19°
2026-05-06 20:33 65.40906 -18.22638 5008 ft 265 kts 18°
2026-05-06 20:33 65.42646 -18.21229 5009 ft 265 kts 18°
2026-05-06 20:33 65.44425 -18.19782 4956 ft 274 kts 18°
2026-05-06 20:34 65.46266 -18.18269 4553 ft 281 kts 18°
2026-05-06 20:34 65.48068 -18.16778 4142 ft 266 kts 18°
2026-05-06 20:34 65.49778 -18.15364 3759 ft 252 kts 18°
2026-05-06 20:34 65.51389 -18.13964 3413 ft 242 kts 19°
2026-05-06 20:35 65.52916 -18.12627 3055 ft 234 kts 19°
2026-05-06 20:35 65.54414 -18.11184 2589 ft 231 kts 20°
2026-05-06 20:35 65.55920 -18.09818 1929 ft 228 kts 18°
2026-05-06 20:35 65.57315 -18.08696 1539 ft 191 kts 15°
2026-05-06 20:36 65.58428 -18.07892 1392 ft 135 kts 13°
2026-05-06 20:36 65.59251 -18.07394 1136 ft 112 kts
2026-05-06 20:36 65.60003 -18.07077 942 ft 110 kts
2026-05-06 20:36 65.60743 -18.06874 856 ft 104 kts
2026-05-06 20:37 65.61459 -18.06737 698 ft 106 kts
2026-05-06 20:37 65.62205 -18.06686 564 ft 107 kts 358°
2026-05-06 20:37 65.62938 -18.06712 437 ft 107 kts 356°
2026-05-06 20:37 65.63681 -18.06839 261 ft 107 kts 356°
2026-05-06 20:38 65.64424 -18.06978 68 ft 106 kts 354°
2026-05-06 20:38 65.65126 -18.07106 17 ft 91 kts 355°
2026-05-06 20:38 65.65543 -18.07175 12 ft 4 kts 16°
2026-05-06 20:38 65.65552 -18.07193 12 ft 5 kts 199°
2026-05-06 20:39 65.65484 -18.07273 11 ft 16 kts 256°
2026-05-06 20:39 65.65474 -18.07468 12 ft 6 kts 266°
2026-05-06 20:39 65.65475 -18.07487 12 ft 0 kts 293°
2026-05-06 20:39 65.65480 -18.07489 12 ft 1 kts 350°
2026-05-06 20:40 65.65481 -18.07488 12 ft 0 kts